Opa-locka, FL

3:03 PM EST on February 19, 2017 (GMT -0500)
Opa Locka

Weather History for KOPF - March, 2014

Change the Weather History Date:

Monday, March 3, 2014

  Actual Average Record
Temperature  
Mean Temperature 72 °F -  
Max Temperature 82 °F 79 °F 92 °F (1972)
Min Temperature 62 °F 61 °F 32 °F (1980)
Cooling Degree Days 7    
Growing Degree Days 22 (Base 50)    
Moisture  
Dew Point 61 °F    
Average Humidity 68    
Maximum Humidity 96    
Minimum Humidity 41    
Precipitation  
Precipitation 0.00 in - - ()
Sea Level Pressure  
Sea Level Pressure 30.05 in    
Wind  
Wind Speed 4 mph (SSE)    
Max Wind Speed 12 mph    
Max Gust Speed -    
Visibility 10 miles    
Events      
Averages and records for this station are not official NWS values.
T = Trace of Precipitation, MM = Missing Value Source: NWS Daily Summary

Daily Weather History Graph

Daily Weather History Graph

Search for Another Location

Airport or City:

Trip Planner

Search our weather history database for the weather conditions in past years. The results will help you decide how hot, cold, wet, or windy it might be!

Date:

Astronomy

Mar. 03, 2014 Rise Set
Actual Time 6:42 AM EST 6:23 PM EST
Civil Twilight 6:19 AM EST 6:46 PM EST
Nautical Twilight 5:52 AM EST 7:13 PM EST
Astronomical Twilight 5:26 AM EST 7:40 PM EST
Moon 8:08 AM EST (3/3) 9:03 PM EST (3/3)
Length of Visible Light 12h 27m
Length of Day
11h 41m
Waxing Crescent, 8% of the Moon is Illuminated
Mar 3
Waxing Crescent
Mar 8
First Quarter
Mar 16
Full
Mar 23
Last Quarter
Mar 30
New

Hourly Weather History & Observations

Time (EST) Temp. Heat Index Dew Point Humidity Pressure Visibility Wind Dir Wind Speed Gust Speed Precip Events Conditions
12:53 AM 69.1 °F - 62.1 °F 78% 30.09 in 10.0 mi ESE 4.6 mph - N/A   Clear
1:53 AM 66.9 °F - 63.0 °F 87% 30.06 in 10.0 mi Calm Calm - N/A   Clear
2:53 AM 64.0 °F - 61.0 °F 90% 30.04 in 10.0 mi Calm Calm - N/A   Clear
3:53 AM 64.9 °F - 62.1 °F 90% 30.04 in 10.0 mi Calm Calm - N/A   Clear
4:53 AM 64.0 °F - 62.1 °F 93% 30.04 in 10.0 mi Calm Calm - N/A   Clear
5:53 AM 62.1 °F - 61.0 °F 96% 30.05 in 10.0 mi Calm Calm - N/A   Clear
6:53 AM 62.1 °F - 60.1 °F 93% 30.06 in 10.0 mi Calm Calm - N/A   Clear
7:53 AM 70.0 °F - 64.0 °F 81% 30.09 in 10.0 mi Calm Calm - N/A   Clear
8:53 AM 75.0 °F - 59.0 °F 57% 30.09 in 10.0 mi SE 6.9 mph - N/A   Clear
9:53 AM 78.1 °F - 57.9 °F 50% 30.10 in 10.0 mi ESE 9.2 mph - N/A   Clear
10:53 AM 80.1 °F 80.4 °F 57.0 °F 45% 30.10 in 10.0 mi North - - N/A   Partly Cloudy
11:53 AM 80.1 °F 80.4 °F 57.0 °F 45% 30.08 in 10.0 mi Variable 6.9 mph - N/A   Partly Cloudy
12:53 PM 81.0 °F 80.7 °F 55.0 °F 41% 30.06 in 10.0 mi Variable 3.5 mph - N/A   Clear
1:53 PM 81.0 °F 81.3 °F 59.0 °F 47% 30.03 in 10.0 mi Variable 6.9 mph - N/A   Mostly Cloudy
2:53 PM 82.0 °F 82.4 °F 60.1 °F 47% 30.01 in 10.0 mi SSE 11.5 mph - N/A   Mostly Cloudy
3:53 PM 79.0 °F - 61.0 °F 54% 30.00 in 10.0 mi East 9.2 mph - N/A   Mostly Cloudy
4:53 PM 80.1 °F 80.7 °F 59.0 °F 48% 30.01 in 10.0 mi SSE 11.5 mph - N/A   Clear
5:53 PM 77.0 °F - 60.1 °F 56% 30.02 in 10.0 mi South 10.4 mph - N/A   Clear
6:53 PM 75.0 °F - 62.1 °F 64% 30.03 in 10.0 mi South 9.2 mph - N/A   Clear
7:53 PM 73.0 °F - 63.0 °F 71% 30.04 in 10.0 mi South 8.1 mph - N/A   Clear
8:53 PM 73.9 °F - 64.0 °F 71% 30.06 in 10.0 mi SSW 6.9 mph - N/A   Mostly Cloudy
9:53 PM 72.0 °F - 62.1 °F 71% 30.07 in 10.0 mi SSW 8.1 mph - N/A   Clear
10:53 PM 70.0 °F - 64.0 °F 81% 30.07 in 10.0 mi WSW 5.8 mph - N/A   Clear
11:53 PM 69.1 °F - 64.9 °F 87% 30.06 in 10.0 mi West 6.9 mph - N/A   Clear